Driving
Date
Distance Duration Average
Speed
Average
Heartbeat
kcal in-/outdoor
2020/05/17 38.70 km 1:24:39 27.4 kmh 134 bpm 1.199 outdoor
2020/05/16 25.54 km 0:45:00 34.1 kmh 139 bpm 672 indoor
2020/05/13 25.70 km 0:45:00 34.3 kmh 149 bpm 724 indoor
2020/05/12 32.73 km 1:00:00 32.8 kmh 133 bpm 840 indoor
2020/05/11 33.33 km 1:00:00 33.3 kmh 133 bpm 839 indoor
2020/05/10 39.56 km 1:22:48 28.6 kmh 135 bpm 1.249 outdoor
2020/05/09 35.33 km 1:16:31 27.7 kmh 127 bpm 1.048 outdoor
2020/05/08 23.85 km 0:45:00 31.8 kmh 117 bpm 577 indoor
2020/05/06 34.17 km 1:00:00 34.2 kmh 127 bpm 858 indoor
2020/05/05 24.08 km 0:45:00 32.1 kmh 130 bpm 606 indoor
2020/05/04 16.95 km 0:30:00 33.9 kmh 128 bpm 396 indoor
2020/05/03 33.39 km 1:00:00 33.4 kmh 131 bpm 818 indoor
2020/05/02 33.83 km 1:00:00 33.8 kmh 135 bpm 854 indoor
2020/05/01 33.59 km 1:00:00 33.6 kmh 142 bpm 928 indoor
2020/04/30 24.20 km 0:45:00 32.3 kmh 129 bpm 598 indoor
2020/04/29 32.72 km 1:00:00 32.7 kmh 137 bpm 874 indoor
2020/04/27 24.45 km 0:45:00 32.6 kmh 132 bpm 623 indoor
2020/04/24 23.05 km 0:45:00 30.7 kmh 127 bpm 585 indoor
2020/04/23 22.97 km 0:45:00 30.6 kmh 127 bpm 584 indoor
2020/04/22 23.13 km 0:45:00 30.9 kmh 128 bpm 592 indoor
2020/04/21 11.27 km 0:30:00 32.6 kmh 137 bpm 274 indoor
2020/04/20 14.71 km 0:30:00 29.5 kmh 123 bpm 374 indoor
2020/04/19 24.35 km 0:45:00 32.5 kmh 134 bpm 635 indoor
2020/04/17 14.71 km 0:30:00 29.4 kmh 125 bpm 383 indoor
2020/04/16 15.45 km 0:30:00 32.9 kmh 137 bpm 440 indoor
2020/04/15 15.53 km 0:30:00 31.1 kmh 134 bpm 423 indoor
2020/04/14 15.18 km 0:30:00 30.4 kmh 126 bpm 387 indoor
2020/04/12 40.82 km 1:28:44 27.6 kmh 138 bpm 637 outdoor
2020/04/1 16.08 km 0:30:00 32.2 kmh 135 bpm 428 indoor
2020/04/10 15.4 km 0:30:00 30.8 kmh 137 bpm 439 indoor
2020/04/10 28.03 km 1:00:00 28.1 kmh 120 bpm 715 indoor
2020/04/09 14.55 km 0:30:00 29.1 kmh 124 bpm 377 indoor
2020/04/08 10.22 km 0:20:00 30.7 kmh 132 bpm 275 indoor
2020/04/08 14.36 km 0:30:00 28.8 kmh 118 bpm 348 indoor
2020/04/08 10.83 km 0:20:00 32.5 kmh 126 bpm 256 indoor
2020/04/06 35.70 km 1:16:56 27.8 kmh 133 bpm 529 outdoor
2020/04/04 35.71 km 1:17:35 27.6 kmh 137 bpm 539 outdoor
2020/04/02 35.66 km 1:20:54 26.4 kmh 144 bpm 532 outdoor
2020/04/02 35.66 km 1:20:54 26.4 kmh 144 bpm 532 outdoor
2020/03/31 35.69 km 1:27:32 24.4 kmh 131 bpm 490 outdoor
2020/03/16 35.67 km 1:19:50 26.8 kmh 141 bpm 518 outdoor
2020/03/14 35.16 km 1:22:53 25.4 kmh 142 bpm 505 outdoor
2020/03/02 35.17 km 1:25:21 24.7 kmh 139 bpm 490 outdoor
2020/02/09 35.50 km 1:28:46 23.9 kmh 133 bpm 689 outdoor
2020/01/25 14.55 km 0:35:59 24.2 kmh 136 bpm 275 outdoor
2019 766.15 km ∅ 29.47 km ∅ 01:07:11 ∅ 25.97km/h ∅ 136 bpm ∅ 840  
2019/12/21 31.16 km 1:13:56 25.2 kmh 137 bpm 608
2019/10/12 34.94 km 1:15:43 27.6 kmh 135 bpm 704
2019/09/21 34.81 km 1:14:19 28.1 kmh 142 bpm 1.088
2019/09/15 34.85 km 1:19:11 26.4 kmh 139 bpm 1.063
2019/09/04 34.81 km 1:15:55 27.5 kmh 148 bpm 1.068
2019/09/01 34.80 km 1:15:36 27.6 kmh 137 bpm 1.046
2019/08/31 34.77 km 1:17:34 26.8 kmh 139 bpm 1.030
2019/08/29 34.86 km 1:19:57 26.1 kmh 128 bpm 1.003
2019/08/26 34.79 km 1:18:18 26.6 kmh 137 bpm 1.044
2019/08/25 38.99 km 1:31:19 25.6 kmh 130 bpm 1.121
2019/08/24 34.79 km 1:18:56 26.4 kmh 138 bpm 1.032
2019/08/18 34.77 km 1:14:17 28.0 kmh 140 bpm 1.048
2019/08/10 34.87 km 1:17:19 27.0 kmh 141 bpm 1.071
2019/08/05 34.87 km 1:14:38 28.0 kmh 145 bpm 1.088
2019/08/04 34.83 km 1:15:25 27.7 kmh 135 bpm 1.056
2019/08/02 34.84 km 1:16:06 27.4 kmh 135 bpm 1.069
2019/07/29 34.80 km 1:17:37 26.9 kmh 134 bpm 1.010
2019/06/29 38.16 km 1:33:41 24.4 kmh 125 bpm 1.028
2019/06/10 34.65 km 1:18:58 26.3 kmh 142 bpm 1.009
2019/06/08 24.83 km 1:07:30 22.0 kmh 130 bpm 634
2019/04/26 8.87 km 0:25:26 20.9 kmh 112 bpm 210
2019/04/25 9.39 km 0:24:41 22.8 kmh 129 bpm 265
2019/04/22 18.41 km 0:44:13 24.9 kmh 137 bpm 496
2019/04/09 24.76 km 1:01:13 24.2 kmh 134 bpm 640
2019/03/30 7.23 km 0:15:16 28.4 kmh 137 bpm 227
2019/03/30 7.30 km 0:19:37 22.3 kmh 139 bpm 192
2018/10/05 40.08 km 1:28:37 27.1 kmh 141 bpm 1.129
2018/09/30 34.40 km 1:17:42 26.5 kmh 145 bpm 992
2018/09/16 7.28 km 0:15:51 27.5 kmh 138 bpm 236
2018/09/16 7.27 km 0:16:56 25.7 kmh 137 bpm 215
2018/09/08 34.34 km 1:16:06 27.0 kmh 142 bpm 975
2018/09/03 34.48 km 1:17:21 26.7 kmh 138 bpm 684
2018/08/19 22.97 km 0:52:08 26.4 kmh 142 bpm 637
2018/08/02 31.75 km 1:11:57 26.4 kmh 144 bpm 899
2018/07/20 34.62 km 1:13:59 28.0 kmh 141 bpm 1.020
2018/07/16 38.99 km 1:28:36 26.4 kmh 124 bpm 1.045
2018/06/02 30.14 km 1:04:42 27.9 kmh 137 bpm 846
2018/05/30 34.24 km 1:18:06 26.3 kmh 124 bpm 939
2018/05/24 36.44 km 1:20:37 27,1 kmh 141 bpm 1.071
2018/05/15 32.88 km 1:13:31 26.8 kmh 132 bpm 913
2018/05/14 39.15 km 1:26:25 27.1 kmh 139 bpm 1.108
2018/05/13 10.84 km 0:26:21 24.6 kmh 140 bpm 288
2018/05/13 10.54 km 0:21:56 28.8 kmh 141 bpm 313
2018/05/11 34.37 km 1:15:48 27.2 kmh 136 bpm 951
2018/05/07 10.3 km 0:21:53 28.2 kmh 150 bpm 306
2018/05/07 21.06 km 0:50:46 24.8 kmh 143 bpm 609
2018/05/06 34.07 km 1:17:48 26.2 kmh 142 bpm 960
2018/04/28 31.16 km 1:10:36 26.4 kmh 150 bpm 901
2018/04/19 34.24 km 1:18:31 26.1 kmh 140 bpm 1.018
2018/04/16 34.33 km 1:15:41 27.2 kmh 143 bpm 993
2018/04/09 9.39 km 0:24:00 23.4 kmh 126 bpm 232
2017/12/04 31.30 km 1:13:51 25.4 kmh 151 bpm 952
2017/11/25 40.63 km 1:39:09 24.5 kmh 145 bpm 1.240
2017/10/16 38.22 km 1:21:10 28.2 kmh 141 bpm 1.112
2017/10/15 53.45 km 1:52:46 28.4 kmh 145 bpm 1.604
2017/10/13 32.35 km 1:09:35 27.8 kmh 142 bpm 945
2017/10/11 30.94 km 1:05:37 28.2 kmh 137 bpm 862
2017/10/10 35.16 km 1:14:11 28.4 kmh 145 bpm 1.016
2017/10/08 33.45 km 1:12:42 27.6 kmh 143 bpm 993
2017/10/07 35.24 km 1:17:19 27.3 kmh 151 bpm 1.098
2017/10/03 35.20 km 1:14:33 28.3 kmh 146 bpm 1.080
2017/10/01 28.49 km 1:00:48 28.1 kmh 148 bpm 890
2017/09/29 36.60 km 1:13:58 28.8 kmh 150 bpm 1.093
2017/09/27 40.61 km 1:33:35 26.0 kmh 147 bpm 1.178
2017/09/17 45.88 km 1:38:28 27.9 kmh 138 bpm 1.266
2017/09/14 24.15 km 0:54:49 26.4 kmh 134 bpm 776
2017/08/23 38.05 km 1:23:06 27.4 kmh 134 bpm 1.140
2017/08/21 43.87 km 1:33:25 28.1 kmh 138 bpm 1.366
2017/08/19 44.39 km 1:37:25 27.3 kmh 143 bpm 1.415
2017/08/17 31.59 km 1:08:54 27.5 kmh 136 bpm 992
2017/08/15 42.13 km 1:41:08 24,9 kmh 129 bpm 1.232
2017/08/14 42.81 km 1:38:12 26.1 kmh 134 bpm 1.350
2017/08/07 42.78 km 1:33:04 27.5 kmh 143 bpm 1.355
2017/08/06 42.80 km 1:33:06 27.6 kmh 138 bpm 1.325
2017/08/05 41.47 km 1:31:09 27.2 kmh 136 bpm 1.241
2017/08/04 19.73 km 0:39:11 30.2 kmh 128 bpm 650
2017/08/04 24.35 km 1:01:15 23.8 kmh 132 bpm 711
2017/07/31 44.69 km 1:44:24 25.6 kmh 134 bpm 1.312
2017/07/30 43.55 km 1:43:40 25.2 kmh 138 bpm 1.369
2017/07/27 34.76 km 1:20:50 25.8 kmh 136 bpm 1.013
2017/07/26 34.46 km 1:22:26 25.0 kmh 139 bpm 1.015
2017/07/11 33.99 km 1:24:37 24.1 kmh 127 bpm 957
2017/07/08 33.23 km 1:23:30 24.1 kmh 129 bpm 989
2017/07/04 34.67 km 1:24:53 24.5 kmh 131 bpm 983
2017/06/18 34.57 km 1:25:36 24.2 kmh 131 bpm 953
2017/06/17 27.94 km 1:10:35 23.7 kmh 129 bpm 789
2017/06/15 17.01 km 0:45:46 22.3 kmh 125 bpm 404
2017/06/15 16.96 km 0:41:18 24.6 kmh 128 bpm 441
2017/06/10 10.35 km 0:22:52 27.1 kmh 142 bpm 295
2017/06/10 9.97 km 0:25:35 23.3 kmh 139 bpm 272
2017/06/05 34.75 km 1:22:59 25.1 kmh 131 bpm 959
2017/06/02 34.39 km 1:23:37 24.6 kmh 130 bpm 984
2017/05/28 23.27 km 0:55:12 25.3 kmh 137 bpm 657
2017/05/15 34.46 km 1:20:31 25.6 kmh 135 bpm 954
2017/05/11 10.29 km 0:27:20 22.5 kmh 134 bpm 247
2017/05/11 10.36 km 0:25:08 24.7 kmh 133 bpm 268
2017/04/29 32.86 km 1:21:46 24.1 kmh 137 bpm 883
2017/04/23 28.23 km 1:10:40 23.9 kmh 129 bpm 798
2017/04/15 32.48 km 1:33:03 20.9 kmh 121 bpm 755
2017/04/11 17.3 km 0:46:01 22.5 kmh 125 bpm 460
2017/04/04 29.33 km 1:12:22 24.3 kmh 136 bpm 789
2016/10/06 25.05 km 0:57:00 26.3 kmh 135 bpm 690
2016/05/11 29.12 km 1:13:10 23.88 kmh
2015/04/27 22.97 km 0:53:55 25.56 kmh
2015/04/01 22.65 km 1:01:47 21.99 kmh
2014/09/21 19.16 km 0:44:49 25.66 kmh
2014/09/17 19.14 km 0:45:18 25.35 kmh
2014/09/08 19.16 km 0:46:49 24.56 kmh
2014/09/06 19.16 km 0:44:24 25.89 kmh